RYR5BC LIBD-LICJ

Flight info

Callsign RYR5BC
Flight time 0h 48m
Altitude 33000
Route TOPNO DCT BUMOK DCT KUTID DCT AMANO M742 ROSAS
Aircraft B738/M-SDE2E3FGHIRWXY/LB1

Departure

Time 2026-04-23 16:19
Airport Bari Karol Wojtyła International Airport (LIBD)

Arrival

Time 2026-04-23 17:08
Airport Falcone–Borsellino Airport (LICJ)
Time Latitude Longitude Altitude Speed Heading
2026-04-23 15:54 41.13744 16.76975 158 ft 0 kts 197°
2026-04-23 16:13 41.13762 16.76982 158 ft 4 kts 200°
2026-04-23 16:13 41.13806 16.77019 158 ft 4 kts 240°
2026-04-23 16:13 41.13810 16.77029 158 ft 0 kts 250°
2026-04-23 16:15 41.13807 16.77017 158 ft 5 kts 249°
2026-04-23 16:15 41.13791 16.76961 158 ft 8 kts 250°
2026-04-23 16:16 41.13769 16.76880 158 ft 10 kts 250°
2026-04-23 16:16 41.13790 16.76791 157 ft 11 kts 312°
2026-04-23 16:16 41.13859 16.76771 157 ft 11 kts 32°
2026-04-23 16:16 41.13891 16.76860 157 ft 11 kts 70°
2026-04-23 16:17 41.13918 16.76955 157 ft 12 kts 69°
2026-04-23 16:17 41.13951 16.77073 157 ft 15 kts 69°
2026-04-23 16:17 41.13992 16.77216 157 ft 17 kts 69°
2026-04-23 16:17 41.14035 16.77356 157 ft 15 kts 57°
2026-04-23 16:18 41.14128 16.77413 154 ft 13 kts 15°
2026-04-23 16:18 41.14208 16.77409 147 ft 9 kts 341°
2026-04-23 16:18 41.14214 16.77348 147 ft 8 kts 249°
2026-04-23 16:18 41.14167 16.77180 148 ft 51 kts 250°
2026-04-23 16:19 41.13953 16.76425 148 ft 121 kts 249°
2026-04-23 16:19 41.13579 16.75180 361 ft 156 kts 251°
2026-04-23 16:19 41.13218 16.73812 1079 ft 159 kts 255°
2026-04-23 16:19 41.12867 16.72419 1824 ft 163 kts 252°
2026-04-23 16:20 41.12428 16.70905 2235 ft 192 kts 252°
2026-04-23 16:20 41.11920 16.69154 2716 ft 209 kts 253°
2026-04-23 16:20 41.11381 16.67287 3110 ft 230 kts 254°
2026-04-23 16:20 41.10781 16.65171 3446 ft 256 kts 254°
2026-04-23 16:21 41.10136 16.62925 4174 ft 265 kts 253°
2026-04-23 16:21 41.09474 16.60615 4994 ft 270 kts 253°
2026-04-23 16:21 41.08809 16.58300 5829 ft 275 kts 253°
2026-04-23 16:21 41.08126 16.55908 6633 ft 280 kts 252°
2026-04-23 16:22 41.07426 16.53445 7474 ft 284 kts 252°
2026-04-23 16:22 41.06719 16.50978 8280 ft 288 kts 252°
2026-04-23 16:22 41.06014 16.48510 9044 ft 293 kts 252°
2026-04-23 16:22 41.05289 16.45968 9837 ft 296 kts 252°
2026-04-23 16:23 41.04556 16.43395 10510 ft 305 kts 251°
2026-04-23 16:23 41.03777 16.40661 10748 ft 328 kts 251°
2026-04-23 16:23 41.02957 16.37785 11333 ft 338 kts 251°
2026-04-23 16:23 41.02121 16.34867 12110 ft 341 kts 251°
2026-04-23 16:24 41.01278 16.31928 12925 ft 343 kts 251°
2026-04-23 16:24 41.00423 16.28946 13668 ft 348 kts 251°
2026-04-23 16:24 40.99556 16.25929 14406 ft 353 kts 251°
2026-04-23 16:24 40.98677 16.22872 15168 ft 357 kts 251°
2026-04-23 16:25 40.97788 16.19781 15909 ft 362 kts 251°
2026-04-23 16:25 40.96888 16.16652 16658 ft 365 kts 251°
2026-04-23 16:25 40.95978 16.13494 17370 ft 370 kts 251°
2026-04-23 16:25 40.94999 16.10325 18048 ft 376 kts 244°
2026-04-23 16:26 40.93582 16.07394 18738 ft 381 kts 236°
2026-04-23 16:26 40.92010 16.04552 19370 ft 386 kts 234°
2026-04-23 16:26 40.90392 16.01685 19982 ft 391 kts 234°
2026-04-23 16:26 40.88760 15.98780 20607 ft 396 kts 234°
2026-04-23 16:27 40.87127 15.95836 21224 ft 400 kts 235°
2026-04-23 16:27 40.85481 15.92839 21783 ft 405 kts 235°
2026-04-23 16:27 40.83830 15.89812 22375 ft 409 kts 235°
2026-04-23 16:27 40.82731 15.87790 22774 ft 411 kts 235°
2026-04-23 16:28 40.81057 15.84711 23321 ft 415 kts 235°
2026-04-23 16:28 40.79367 15.81603 23836 ft 419 kts 235°
2026-04-23 16:28 40.77658 15.78464 24350 ft 423 kts 235°
2026-04-23 16:28 40.75932 15.75299 24882 ft 426 kts 235°
2026-04-23 16:29 40.74195 15.72115 25392 ft 429 kts 235°
2026-04-23 16:29 40.72444 15.68911 25839 ft 433 kts 235°
2026-04-23 16:29 40.70646 15.65712 26314 ft 436 kts 232°
2026-04-23 16:29 40.68726 15.62601 26795 ft 439 kts 230°
2026-04-23 16:30 40.66743 15.59527 27249 ft 441 kts 230°
2026-04-23 16:30 40.64736 15.56456 27684 ft 445 kts 230°
2026-04-23 16:30 40.62712 15.53351 28117 ft 447 kts 230°
2026-04-23 16:30 40.60689 15.50229 28543 ft 450 kts 230°
2026-04-23 16:31 40.58659 15.47080 29010 ft 451 kts 230°
2026-04-23 16:31 40.56637 15.43934 29560 ft 449 kts 230°
2026-04-23 16:31 40.54626 15.40801 30075 ft 448 kts 230°
2026-04-23 16:31 40.52617 15.37673 30569 ft 447 kts 231°
2026-04-23 16:32 40.50612 15.34556 31094 ft 446 kts 231°
2026-04-23 16:32 40.48618 15.31460 31630 ft 443 kts 231°
2026-04-23 16:32 40.46634 15.28380 32150 ft 440 kts 231°
2026-04-23 16:32 40.44663 15.25325 32588 ft 439 kts 231°
2026-04-23 16:33 40.42689 15.22270 32978 ft 438 kts 231°
2026-04-23 16:33 40.40695 15.19216 33094 ft 444 kts 230°
2026-04-23 16:33 40.36564 15.13214 33091 ft 439 kts 229°
2026-04-23 16:34 40.32486 15.07393 33107 ft 436 kts 229°
2026-04-23 16:34 40.28356 15.01470 33111 ft 438 kts 229°
2026-04-23 16:35 40.24269 14.95587 33103 ft 440 kts 230°
2026-04-23 16:35 40.20144 14.89658 33100 ft 441 kts 230°
2026-04-23 16:36 40.16016 14.83738 33100 ft 440 kts 230°
2026-04-23 16:36 40.11902 14.77844 33101 ft 438 kts 230°
2026-04-23 16:37 40.07803 14.71984 33098 ft 436 kts 230°
2026-04-23 16:37 40.03716 14.66154 33102 ft 435 kts 230°
2026-04-23 16:38 39.99632 14.60336 33097 ft 434 kts 230°
2026-04-23 16:38 39.95554 14.54542 33104 ft 432 kts 231°
2026-04-23 16:39 39.91506 14.48801 33085 ft 428 kts 231°
2026-04-23 16:39 39.87487 14.43111 33086 ft 425 kts 231°
2026-04-23 16:40 39.83488 14.37461 33092 ft 424 kts 231°
2026-04-23 16:40 39.79484 14.31813 33093 ft 425 kts 231°
2026-04-23 16:41 39.75469 14.26157 33095 ft 427 kts 231°
2026-04-23 16:41 39.71431 14.20481 33094 ft 428 kts 231°
2026-04-23 16:42 39.67377 14.14796 33097 ft 430 kts 230°
2026-04-23 16:42 39.63304 14.09096 33096 ft 432 kts 231°
2026-04-23 16:43 39.59224 14.03392 33089 ft 431 kts 231°
2026-04-23 16:43 39.55150 13.97701 32957 ft 432 kts 231°
2026-04-23 16:44 39.53128 13.94885 32527 ft 431 kts 231°
2026-04-23 16:44 39.51087 13.92045 31991 ft 431 kts 230°
2026-04-23 16:44 39.49053 13.89213 31470 ft 431 kts 230°
2026-04-23 16:44 39.47005 13.86367 30919 ft 431 kts 230°
2026-04-23 16:45 39.44956 13.83527 30359 ft 433 kts 229°
2026-04-23 16:45 39.42704 13.80919 29771 ft 438 kts 218°
2026-04-23 16:45 39.40119 13.78825 29218 ft 440 kts 209°
2026-04-23 16:45 39.37302 13.77297 28707 ft 440 kts 201°
2026-04-23 16:46 39.34417 13.76004 28260 ft 436 kts 200°
2026-04-23 16:46 39.31551 13.74756 27800 ft 433 kts 200°
2026-04-23 16:46 39.28707 13.73515 27345 ft 430 kts 201°
2026-04-23 16:46 39.25883 13.72268 26894 ft 427 kts 201°
2026-04-23 16:47 39.23099 13.71024 26449 ft 423 kts 201°
2026-04-23 16:47 39.20318 13.69772 26003 ft 420 kts 202°
2026-04-23 16:47 39.17571 13.68530 25567 ft 417 kts 202°
2026-04-23 16:47 39.14842 13.67294 25125 ft 414 kts 202°
2026-04-23 16:48 39.12135 13.66070 24687 ft 411 kts 202°
2026-04-23 16:48 39.09446 13.64855 24256 ft 408 kts 202°
2026-04-23 16:48 39.06784 13.63653 23827 ft 404 kts 203°
2026-04-23 16:48 39.04138 13.62460 23404 ft 401 kts 203°
2026-04-23 16:49 39.02400 13.61677 23129 ft 399 kts 203°
2026-04-23 16:49 38.98919 13.60110 22564 ft 394 kts 203°
2026-04-23 16:49 38.96341 13.58949 22159 ft 390 kts 204°
2026-04-23 16:49 38.93788 13.57801 21749 ft 387 kts 204°
2026-04-23 16:50 38.91261 13.56666 21359 ft 384 kts 204°
2026-04-23 16:50 38.88752 13.55541 20976 ft 380 kts 204°
2026-04-23 16:50 38.86307 13.54316 20566 ft 372 kts 215°
2026-04-23 16:50 38.84335 13.52318 20208 ft 355 kts 234°
2026-04-23 16:51 38.82907 13.49798 19836 ft 346 kts 242°
2026-04-23 16:51 38.81606 13.47212 19434 ft 344 kts 243°
2026-04-23 16:51 38.80347 13.44665 19048 ft 341 kts 243°
2026-04-23 16:51 38.79067 13.42077 18664 ft 339 kts 243°
2026-04-23 16:52 38.77818 13.39568 18239 ft 338 kts 243°
2026-04-23 16:52 38.76547 13.37025 17534 ft 341 kts 243°
2026-04-23 16:52 38.75253 13.34451 16618 ft 344 kts 242°
2026-04-23 16:52 38.73948 13.31864 15725 ft 347 kts 242°
2026-04-23 16:53 38.72634 13.29269 14827 ft 348 kts 242°
2026-04-23 16:53 38.71313 13.26668 13939 ft 349 kts 241°
2026-04-23 16:53 38.70012 13.24113 13615 ft 333 kts 241°
2026-04-23 16:53 38.68769 13.21680 13337 ft 320 kts 241°
2026-04-23 16:54 38.67566 13.19321 13091 ft 318 kts 241°
2026-04-23 16:54 38.66347 13.16917 12856 ft 327 kts 241°
2026-04-23 16:54 38.65099 13.14461 12608 ft 328 kts 241°
2026-04-23 16:54 38.63856 13.12024 12354 ft 326 kts 241°
2026-04-23 16:55 38.62621 13.09606 12102 ft 324 kts 241°
2026-04-23 16:55 38.61392 13.07201 11851 ft 323 kts 240°
2026-04-23 16:55 38.60168 13.04805 11594 ft 321 kts 240°
2026-04-23 16:55 38.58949 13.02425 11266 ft 318 kts 240°
2026-04-23 16:56 38.57739 13.00063 10890 ft 316 kts 240°
2026-04-23 16:56 38.56549 12.97743 10586 ft 305 kts 240°
2026-04-23 16:56 38.55414 12.95535 10461 ft 292 kts 240°
2026-04-23 16:56 38.54310 12.93387 10341 ft 288 kts 240°
2026-04-23 16:57 38.53216 12.91254 10226 ft 287 kts 239°
2026-04-23 16:57 38.52126 12.89129 10108 ft 285 kts 239°
2026-04-23 16:57 38.51033 12.87000 9839 ft 290 kts 239°
2026-04-23 16:57 38.49919 12.84830 9555 ft 295 kts 239°
2026-04-23 16:58 38.48793 12.82640 9254 ft 295 kts 239°
2026-04-23 16:58 38.47667 12.80452 8939 ft 294 kts 239°
2026-04-23 16:58 38.46543 12.78274 8641 ft 293 kts 239°
2026-04-23 16:58 38.45424 12.76108 8346 ft 291 kts 239°
2026-04-23 16:59 38.44203 12.74077 8173 ft 288 kts 222°
2026-04-23 16:59 38.42468 12.72880 8030 ft 286 kts 194°
2026-04-23 16:59 38.40485 12.72763 7745 ft 288 kts 169°
2026-04-23 16:59 38.38603 12.73606 7481 ft 288 kts 153°
2026-04-23 17:00 38.36788 12.74706 7182 ft 289 kts 152°
2026-04-23 17:00 38.34978 12.75808 6870 ft 289 kts 152°
2026-04-23 17:00 38.33162 12.76904 6567 ft 287 kts 153°
2026-04-23 17:00 38.31359 12.77978 6270 ft 285 kts 153°
2026-04-23 17:01 38.29572 12.79029 5983 ft 283 kts 153°
2026-04-23 17:01 38.27788 12.80080 5676 ft 282 kts 153°
2026-04-23 17:01 38.26012 12.81126 5392 ft 280 kts 153°
2026-04-23 17:01 38.24255 12.82153 5034 ft 275 kts 154°
2026-04-23 17:02 38.23102 12.82787 4825 ft 271 kts 155°
2026-04-23 17:02 38.20820 12.84013 4431 ft 263 kts 155°
2026-04-23 17:02 38.19141 12.84916 4168 ft 261 kts 155°
2026-04-23 17:02 38.17494 12.85805 3903 ft 261 kts 155°
2026-04-23 17:03 38.15827 12.86705 3626 ft 260 kts 155°
2026-04-23 17:03 38.14159 12.87614 3370 ft 260 kts 153°
2026-04-23 17:03 38.12752 12.88971 3091 ft 252 kts 120°
2026-04-23 17:03 38.12265 12.91014 2935 ft 233 kts 86°
2026-04-23 17:04 38.12397 12.92950 2675 ft 215 kts 77°
2026-04-23 17:04 38.12790 12.94704 2431 ft 198 kts 68°
2026-04-23 17:04 38.13275 12.96277 2175 ft 185 kts 64°
2026-04-23 17:04 38.13764 12.97732 1934 ft 173 kts 64°
2026-04-23 17:05 38.14223 12.99097 1712 ft 163 kts 64°
2026-04-23 17:05 38.14656 13.00388 1500 ft 154 kts 65°
2026-04-23 17:05 38.15064 13.01605 1327 ft 147 kts 65°
2026-04-23 17:05 38.15449 13.02755 1143 ft 139 kts 65°
2026-04-23 17:06 38.15823 13.03868 945 ft 134 kts 65°
2026-04-23 17:06 38.16188 13.04983 696 ft 138 kts 65°
2026-04-23 17:06 38.16573 13.06114 482 ft 140 kts 64°
2026-04-23 17:06 38.16956 13.07237 308 ft 138 kts 65°
2026-04-23 17:07 38.17332 13.08367 108 ft 140 kts 66°
2026-04-23 17:07 38.17702 13.09476 12 ft 123 kts 65°
2026-04-23 17:07 38.17952 13.10214 7 ft 65 kts 64°
2026-04-23 17:07 38.18125 13.10711 9 ft 57 kts 66°
2026-04-23 17:08 38.18272 13.11147 8 ft 51 kts 66°
2026-04-23 17:08 38.18402 13.11534 9 ft 45 kts 67°
2026-04-23 17:08 38.18496 13.11817 11 ft 23 kts 66°
2026-04-23 17:08 38.18572 13.11867 11 ft 13 kts 315°
2026-04-23 17:09 38.18597 13.11760 11 ft 13 kts 277°
2026-04-23 17:09 38.18608 13.11650 8 ft 12 kts 277°
2026-04-23 17:09 38.18609 13.11543 8 ft 12 kts 257°
2026-04-23 17:09 38.18575 13.11447 8 ft 12 kts 245°
2026-04-23 17:10 38.18542 13.11353 8 ft 11 kts 248°
2026-04-23 17:10 38.18512 13.11260 8 ft 12 kts 248°
2026-04-23 17:10 38.18479 13.11155 8 ft 14 kts 246°
2026-04-23 17:10 38.18438 13.11035 9 ft 16 kts 246°
2026-04-23 17:11 38.18431 13.10945 8 ft 9 kts 315°
2026-04-23 17:11 38.18469 13.10876 10 ft 11 kts 282°
2026-04-23 17:11 38.18491 13.10779 8 ft 10 kts 288°
2026-04-23 17:11 38.18504 13.10715 8 ft 5 kts 280°
2026-04-23 17:12 38.18515 13.10690 8 ft 5 kts 310°
2026-04-23 17:12 38.18556 13.10665 8 ft 4 kts 338°
2026-04-23 17:12 38.18562 13.10662 8 ft 0 kts 337°